Regional Weather Roundup
Issued by NWS

Home | Current Version | Previous Version | Graphics & Text | Print | Product List | Glossary On
Versions: 1 2 3 4 5 6 7 8 9 10 11 12 13 14 15 16 17 18 19 20 21 22 23 24 25 26 27 28 29 30 31 32 33 34 35 36 37 38 39 40 41 42 43 44 45 46 47 48 49 50
000
ASUS45 KSLC 040610
RWRUT

UTAH REGIONAL WEATHER ROUNDUP
NATIONAL WEATHER SERVICE SALT LAKE CITY UT
1200 AM MDT FRI SEP 04 2015

UTZ001>011-023>025-040700-

NORTHERN UTAH

CITY           SKY/WX    TMP DP  RH WIND       PRES   REMARKS
BRIGHAM CITY   MOCLDY    71  38  29 CALM      29.77R
HILL AFB       MOCLDY    76  36  23 S12       29.81R
LOGAN          CLEAR     60  47  61 CALM      29.80S
OGDEN          PTCLDY    77  34  21 S15       29.78R
PROVO AIRPORT  CLEAR     70  36  28 SE12      29.85R
SALT LAKE CITY PTCLDY    77  35  21 S13       29.78R
VERNAL         PTCLDY    65  38  36 CALM      29.93S
WENDOVER       PTCLDY    70  36  28 W7G21     29.78R
HEBER CITY     PTCLDY    72  30  21 S6        29.91S
WEST JORDAN    CLEAR     72  36  26 SE7       29.82S

$$

UTZ012>022-026-027-040700-

SOUTHERN/CENTRAL UTAH

CITY           SKY/WX    TMP DP  RH WIND       PRES   REMARKS
BLANDING       PTCLDY    67  45  45 S12G20    30.13R
BRYCE CANYON   CLEAR     47  36  65 W6        30.15S
CEDAR CITY     CLEAR     69  26  20 S13       29.98S
DELTA          CLEAR     69  30  23 S12       29.88R
HANKSVILLE     MOCLDY    68  32  26 CALM      29.91S
MILFORD        CLEAR     67  32  27 SW14      29.91S
MOAB/CYNLANDS  CLEAR     73  36  25 SW13      29.89S
PRICE          PTCLDY    67  34  29 E6        29.97S
ST GEORGE      PTCLDY    84  34  16 S14       29.83R
KANAB          CLEAR     57  46  67 CALM      30.04R

$$

REGIONAL REPORTS     COLORADO/ARIZONA

CITY           SKY/WX    TMP DP  RH WIND       PRES   REMARKS
CRAIG, CO      CLEAR     59  47  64 E7        30.06S
GRAND JUNCTION CLEAR     68  50  52 SE13      29.95S
RIFLE          CLEAR     58  53  84 CALM      30.04R
MONTROSE       CLEAR     62  49  62 SE9       30.06F
CORTEZ         CLEAR     65  44  46 N5        30.07S
PAGE, AZ       CLEAR     75  52  44 S20G32    29.93R
GRAND CANYON   PTCLDY    61  41  47 S7        30.15S
KINGMAN        CLEAR     76  55  48 SE20      29.92R
FLAGSTAFF      PTCLDY    57  55  93 SW12      30.20F

$$

REGIONAL REPORTS    NEVADA/IDAHO/WYOMING

CITY           SKY/WX    TMP DP  RH WIND       PRES   REMARKS
LAS VEGAS, NV  CLEAR     88  27  11 S12       29.71S
ELY            CLEAR     58  23  26 S16       29.94S
ELKO           PTCLDY    63  36  36 NE5       29.85R
POCATELLO, ID  CLEAR     58  43  57 SW14      29.87R
BURLEY         PTCLDY    55  40  56 SW10      29.86S
EVANSTON, WY   CLEAR     59  29  31 S8        30.00S
ROCK SPRINGS   PTCLDY    61  43  51 S12       30.00S
KEMMERER       CLEAR     57  27  30 S3        30.02S

$$


USA.gov is the U.S. government's official web portal to all federal, state and local government web resources and services.